Location: Cornospital
(48.0620°N, 3.3837°W)
Time: 20:11:35
(UTC+00:00)

Meteor 1-24 Rocket - Pass Details

Date: 17 June 2021
Orbit: 791 x 927 km, 81.3° (Epoch: 03 August)

Event Time Altitude Azimuth Distance (km) Brightness Sun altitude
Exits shadow 23:03:20 18° 206° (SSW) 1,891 5.1 -16.8°
Maximum altitude 23:07:22 64° 284° (WNW) 898 3.9 -17.0°
Drops below altitude 10° 23:12:49 10° 6° (N) 2,442 7.2 -17.2°
Sets 23:15:18 0° 10° (N) 3,400 8.1 -17.3°
